Regional Weather Roundup
Issued by NWS Mt. Holly, NJ

Home | Current Version | Previous Version | Text Only | Print | Product List | Glossary On
Versions: 1 2 3 4 5 6 7 8 9 10 11 12 13 14 15 16 17 18 19 20 21 22 23 24 25 26 27
000
ASUS41 KPHI 262012
RWRPHI

REGIONAL WEATHER ROUNDUP
NATIONAL WEATHER SERVICE MOUNT HOLLY NJ
400 PM EDT WED APR 26 2017

NOTE:  "FAIR" INDICATES FEW OR NO CLOUDS BELOW 12,000 FEET WITH NO
SIGNIFICANT WEATHER AND/OR OBSTRUCTIONS TO VISIBILITY.

 * = STATION DOES NOT REPORT PRECIPITATION (E.G. RAIN, SNOW, ETC.)
        OR FOG.

NJZ015>026-262100-
SOUTHERN NEW JERSEY

CITY           SKY/WX    TMP DP  RH WIND       PRES   REMARKS
POMONA         CLOUDY    66  58  75 CALM      29.74F
WILDWOOD*      CLOUDY    60  57  89 SE6       29.76F
MILLVILLE      CLOUDY    65  59  81 N6        29.75S
WRIGHTSTOWN    CLOUDY    62  57  85 NE5       29.73F
MOUNT HOLLY    CLOUDY    62  56  80 CALM      29.75F
TRENTON        CLOUDY    64  58  80 VRB3      29.75F

$$
NJZ001>014-262100-
NORTHERN NEW JERSEY

CITY           SKY/WX    TMP DP  RH WIND       PRES   REMARKS
SUSSEX         CLOUDY    61  55  81 NE8       29.77F
ANDOVER*         N/A     60  54  80 VRB3      29.76F
MORRISTOWN     CLOUDY    63  57  82 E5        29.77F
NEWARK         CLOUDY    60  57  89 NE6       29.76F
TETERBORO      CLOUDY    62  57  83 CALM      29.75F
CALDWELL       CLOUDY    62  56  80 VRB5      29.77F
SOMERVILLE     CLOUDY    65  56  72 N5        29.73F
ALLAIRE*       CLOUDY    62  56  80 N7        29.77S
TOMS RIVER*    CLOUDY    63  58  83 NE6       29.76F

$$
PAZ043-044-047-054-055-060>062-066>071-262100-
EASTERN PENNSYLVANIA

CITY           SKY/WX    TMP DP  RH WIND       PRES   REMARKS
PHILADELPHIA   NOT AVBL
NORTH PHILA    CLOUDY    64  57  78 VRB6      29.77F
BLUE BELL*     CLOUDY    61  55  82 CALM      29.78S
DOYLESTOWN     CLOUDY    62  57  83 CALM      29.75F
QUAKERTOWN*    CLOUDY    63  55  77 N3        29.77S
PERKASIE*      CLOUDY    61  57  88 E3        29.78R
POTTSTOWN      CLOUDY    62  55  77 CALM      29.78S
LANCASTER      CLOUDY    67  61  81 CALM      29.77S
COATESVILLE      N/A     63  59  88 N5        29.79R
READING        CLOUDY    67  58  72 CALM      29.75S
ALLENTOWN      CLOUDY    67  55  65 SE3       29.76F
MOUNT POCONO   CLOUDY    60  57  89 VRB5      29.78S
HAZLETON       CLOUDY    70  54  56 CALM      29.80S
LEHIGHTON      CLOUDY    68  55  64 CALM      29.76S
WILKES BARRE   CLOUDY    73  57  57 NE9       29.74F

$$
DEZALL-MDZ008-012-015-019-020-262100-
DELAWARE AND EASTERN MARYLAND

CITY           SKY/WX    TMP DP  RH WIND       PRES   REMARKS
WILMINGTON     CLOUDY    63  58  83 N8        29.77S
DOVER          CLOUDY    64  64 100 NW6       29.76R
GEORGETOWN     CLOUDY    65  59  81 NW3       29.77S
EASTON         CLOUDY    64  57  77 NW5       29.82R
ABERDEEN       CLOUDY    64  60  87 SE3       29.78R
PATUXENT       PTSUNNY   62  60  93 NE3       29.79R
OCEAN CITY     CLOUDY    57  55  93 E3        29.78R
WALLOPS ISLAND CLOUDY    64  59  83 W8        29.78R
CAMBRIDGE      CLOUDY    64  57  77 W5        29.79R
SALISBURY      CLOUDY    64  60  87 W3        29.77S

$$
PAZ001-021-NYZ056-072-MDZ011-DCZ001-262100-
OTHER NEARBY LOCATIONS

CITY           SKY/WX    TMP DP  RH WIND       PRES   REMARKS
HARRISBURG     CLOUDY    66  59  78 W3        29.77R
STATE COLLEGE  MOSUNNY   70  57  64 CALM      29.76F
WILLIAMSPORT   MOSUNNY   74  57  55 W6        29.73F
BINGHAMTON     SUNNY     70  55  59 SE8       29.75F
NEW YORK CITY  CLOUDY    58  57  97 NE7       29.79S FOG
BALTIMORE      CLOUDY    65  58  78 CALM      29.78R
WASHINGTON DC  CLOUDY    69  58  67 NW6       29.78S

$$




USA.gov is the U.S. government's official web portal to all federal, state and local government web resources and services.